Nantucket, MA

5:50 AM EST on February 25, 2017 (GMT -0500)
Nantucket Memorial

Weather History for KACK - January, 2014

Change the Weather History Date:

Friday, January 3, 2014

  Actual Average Record
Temperature  
Mean Temperature 20 °F -  
Max Temperature 28 °F 38 °F 54 °F (1979)
Min Temperature 12 °F 23 °F 11 °F (1981)
Degree Days  
Heating Degree Days 45    
Moisture  
Dew Point 15 °F    
Average Humidity 81    
Maximum Humidity 100    
Minimum Humidity 62    
Precipitation  
Precipitation 0.01 in - - ()
Sea Level Pressure  
Sea Level Pressure 29.87 in    
Wind  
Wind Speed 30 mph (North)    
Max Wind Speed 41 mph    
Max Gust Speed 54 mph    
Visibility 2 miles    
Events Fog , Snow    
Averages and records for this station are not official NWS values.
T = Trace of Precipitation, MM = Missing Value Source: NWS Daily Summary

Daily Weather History Graph

Daily Weather History Graph

Search for Another Location

Airport or City:

Trip Planner

Search our weather history database for the weather conditions in past years. The results will help you decide how hot, cold, wet, or windy it might be!

Date:

Astronomy

Jan. 03, 2014 Rise Set
Actual Time 7:06 AM EST 4:23 PM EST
Civil Twilight 6:35 AM EST 4:54 PM EST
Nautical Twilight 6:00 AM EST 5:29 PM EST
Astronomical Twilight 5:26 AM EST 6:02 PM EST
Moon 8:28 AM EST (1/3) 7:31 PM EST (1/3)
Length of Visible Light 10h 19m
Length of Day
9h 17m
Waxing Crescent, 8% of the Moon is Illuminated
Jan 3
Waxing Crescent
Jan 7
First Quarter
Jan 15
Full
Jan 24
Last Quarter
Jan 30
New

Hourly Weather History & Observations

Time (EST) Temp. Windchill Dew Point Humidity Pressure Visibility Wind Dir Wind Speed Gust Speed Precip Events Conditions
12:04 AM 28.4 °F 13.0 °F 26.6 °F 93% 29.59 in 0.8 mi NE 28.8 mph 39.1 mph 0.00 in Snow Light Snow
12:53 AM 28.9 °F 12.8 °F 27.0 °F 92% 29.57 in 0.8 mi NNE 33.4 mph 43.7 mph 0.00 in   Mist
1:53 AM 28.0 °F 11.1 °F 26.1 °F 92% 29.55 in 0.8 mi NNE 35.7 mph 44.9 mph 0.01 in   Mist
2:53 AM 28.0 °F 11.5 °F 26.1 °F 92% 29.54 in 0.8 mi NNE 33.4 mph 47.2 mph N/A   Mist
3:04 AM 28.4 °F 12.0 °F 26.6 °F 93% 29.53 in 1.0 mi NNE 33.4 mph 46.0 mph N/A   Mist
3:36 AM 26.6 °F 9.3 °F 24.8 °F 93% 29.47 in 1.0 mi NNE 34.5 mph 44.9 mph N/A   Mist
3:48 AM 26.6 °F 8.9 °F 24.8 °F 93% 29.46 in 1.5 mi NNE 36.8 mph 47.2 mph N/A   Overcast
3:53 AM 27.0 °F 10.5 °F 25.0 °F 92% 29.47 in 1.5 mi NNE 31.1 mph 48.3 mph N/A   Overcast
4:19 AM 26.6 °F 9.3 °F 26.6 °F 100% 29.43 in 1.0 mi NNE 34.5 mph 48.3 mph N/A   Mist
4:28 AM 26.6 °F 8.5 °F 26.6 °F 100% 29.40 in 0.8 mi NNE 39.1 mph 48.3 mph N/A   Mist
4:53 AM 27.0 °F 8.6 °F 25.0 °F 92% 29.45 in 0.8 mi NNE 41.4 mph 54.1 mph N/A   Mist
5:53 AM 26.1 °F 8.6 °F 25.0 °F 96% 29.44 in 0.5 mi NNE 34.5 mph 49.5 mph N/A Fog Light Freezing Fog
6:53 AM 26.1 °F 8.6 °F 23.0 °F 88% 29.51 in 0.5 mi North 34.5 mph 51.8 mph N/A Fog Light Freezing Fog
7:29 AM 26.6 °F 9.8 °F 24.8 °F 93% 29.55 in 0.2 mi North 32.2 mph 48.3 mph N/A Fog Light Freezing Fog
7:41 AM 24.8 °F 6.2 °F 21.2 °F 86% 29.57 in 0.2 mi North 38.0 mph 48.3 mph N/A Fog Light Freezing Fog
7:53 AM 24.1 °F 5.9 °F 21.9 °F 91% 29.57 in 0.2 mi North 34.5 mph 48.3 mph N/A Fog Light Freezing Fog
8:17 AM 23.0 °F 4.6 °F 21.2 °F 93% 29.58 in 0.2 mi North 33.4 mph 49.5 mph N/A Fog Light Freezing Fog
8:27 AM 23.0 °F 3.0 °F 19.4 °F 86% 29.59 in 0.2 mi North 41.4 mph 52.9 mph N/A Fog Light Freezing Fog
8:42 AM 23.0 °F 4.1 °F 19.4 °F 86% 29.60 in 0.2 mi North 35.7 mph 48.3 mph N/A Fog Light Freezing Fog
8:49 AM 23.0 °F 4.1 °F 19.4 °F 86% 29.61 in 0.2 mi North 35.7 mph 49.5 mph N/A Fog Light Freezing Fog
8:53 AM 23.0 °F 4.9 °F 19.9 °F 88% 29.62 in 0.2 mi North 32.2 mph 49.5 mph N/A Fog Light Freezing Fog
9:53 AM 21.9 °F 2.4 °F 18.0 °F 85% 29.68 in 0.2 mi North 36.8 mph 46.0 mph N/A Fog Light Freezing Fog
10:53 AM 21.0 °F 3.6 °F 15.1 °F 78% 29.73 in 0.2 mi North 26.5 mph 41.4 mph N/A   Haze
11:53 AM 21.0 °F 2.4 °F 16.0 °F 81% 29.76 in 0.2 mi North 31.1 mph 43.7 mph N/A   Haze
12:53 PM 19.9 °F 0.2 °F 14.0 °F 78% 29.81 in 0.2 mi NNW 34.5 mph 46.0 mph N/A   Haze
1:53 PM 19.0 °F 0.6 °F 14.0 °F 81% 29.89 in 0.2 mi North 27.6 mph 39.1 mph 0.00 in Snow Heavy Snow
2:53 PM 19.0 °F -0.3 °F 12.0 °F 74% 29.97 in 0.2 mi NNW 31.1 mph 39.1 mph 0.00 in Snow Heavy Snow
3:53 PM 18.0 °F -0.2 °F 12.9 °F 81% 30.03 in 0.2 mi NNW 25.3 mph 32.2 mph 0.00 in Snow Heavy Snow
4:18 PM 17.6 °F 0.5 °F 10.4 °F 73% 30.05 in 0.8 mi NNW 21.9 mph 34.5 mph 0.00 in Snow Light Snow
4:53 PM 17.1 °F -1.0 °F 10.0 °F 74% 30.09 in 0.8 mi NNW 24.2 mph 32.2 mph 0.00 in Snow Light Snow
5:53 PM 17.1 °F -1.4 °F 8.1 °F 68% 30.15 in 0.8 mi NNW 25.3 mph 31.1 mph 0.00 in   Overcast
6:11 PM 17.6 °F 1.3 °F 8.6 °F 68% 30.17 in 1.0 mi NW 19.6 mph 31.1 mph 0.00 in   Overcast
6:31 PM 15.8 °F -1.1 °F 8.6 °F 73% 30.19 in 0.8 mi NW 19.6 mph 29.9 mph 0.00 in Snow Light Snow
6:53 PM 16.0 °F -1.7 °F 8.1 °F 71% 30.21 in 0.8 mi NNW 21.9 mph 29.9 mph 0.00 in   Overcast
7:04 PM 15.8 °F -1.5 °F 6.8 °F 68% 30.22 in 1.0 mi NW 20.7 mph 29.9 mph 0.00 in   Overcast
7:45 PM 15.8 °F -1.1 °F 6.8 °F 68% 30.27 in 1.0 mi NW 19.6 mph 28.8 mph 0.00 in   Overcast
7:53 PM 15.1 °F -1.1 °F 6.1 °F 68% 30.28 in 1.0 mi NW 17.3 mph 26.5 mph 0.00 in   Overcast
8:09 PM 15.8 °F -1.9 °F 5.0 °F 62% 30.29 in 1.0 mi NW 21.9 mph 27.6 mph 0.00 in   Overcast
8:20 PM 14.0 °F -4.7 °F 5.0 °F 67% 30.29 in 3.0 mi NNW 23.0 mph 27.6 mph 0.00 in   Overcast
8:53 PM 14.0 °F -3.9 °F 5.0 °F 67% 30.31 in 10.0 mi NW 20.7 mph 27.6 mph 0.00 in   Overcast
9:04 PM 14.0 °F -3.9 °F 5.0 °F 67% 30.31 in 10.0 mi NNW 20.7 mph 27.6 mph N/A   Overcast
9:14 PM 14.0 °F -2.5 °F 5.0 °F 67% 30.32 in 10.0 mi NW 17.3 mph 25.3 mph N/A   Overcast
9:53 PM 12.9 °F -1.6 °F 5.0 °F 71% 30.34 in 10.0 mi NW 12.7 mph 21.9 mph N/A   Overcast
10:15 PM 12.2 °F -3.1 °F 3.2 °F 67% 30.35 in 10.0 mi NW 13.8 mph - N/A   Mostly Cloudy
10:44 PM 12.2 °F -3.7 °F 5.0 °F 73% 30.36 in 10.0 mi NW 15.0 mph - N/A   Scattered Clouds
10:53 PM 12.9 °F -3.4 °F 5.0 °F 71% 30.36 in 10.0 mi NW 16.1 mph - N/A   Partly Cloudy
11:53 PM 12.9 °F -3.4 °F 5.0 °F 71% 30.38 in 10.0 mi NW 16.1 mph - N/A   Clear